Location: Unspecified
(35.7250°N, 0.0000°E)
Time: 10:40:42
(UTC+00:00)

Transit 2A - Visible Passes

Search period start: 19 June 2019 00:00
Search period end: 29 June 2019 00:00
Orbit: 593 x 966 km, 66.7° (Epoch: 18 June)

Date Brightness Start Highest point End Pass type
(mag) Time Alt. Az. Time Alt. Az. Time Alt. Az.
19 Jun 6.7 00:28:59 61° E 00:28:59 61° E 00:34:41 10° NNE visible
19 Jun 8.1 02:09:28 18° W 02:12:07 23° NW 02:17:03 10° N visible
19 Jun 7.3 23:55:34 40° E 23:55:34 40° E 00:00:22 10° NE visible
20 Jun 7.6 01:36:02 27° W 01:37:46 31° NW 01:43:21 10° N visible
20 Jun 7.8 23:22:06 27° E 23:22:06 27° E 23:25:52 10° NE visible
21 Jun 7.1 01:02:35 41° W 01:03:30 43° WNW 01:09:31 10° NNE visible
21 Jun 8.2 22:48:36 18° E 22:48:36 18° E 22:51:05 10° ENE visible
22 Jun 6.7 00:29:03 60° WNW 00:29:17 61° WNW 00:35:34 10° NNE visible
22 Jun 8.8 02:11:43 10° WNW 02:13:47 12° NW 02:15:51 10° NNW visible
22 Jun 8.6 22:15:01 11° E 22:15:01 11° E 22:15:41 10° ENE visible
22 Jun 6.4 23:55:29 80° N 23:55:29 80° N 00:01:31 10° NNE visible
23 Jun 8.6 01:35:56 11° W 01:39:16 16° NW 01:43:00 10° N visible
23 Jun 6.6 23:21:50 62° ENE 23:21:50 62° ENE 23:27:22 10° NNE visible
24 Jun 8.3 01:02:17 17° W 01:04:50 22° NW 01:09:34 10° N visible
24 Jun 7.0 22:48:06 43° E 22:48:06 43° E 22:53:05 10° NE visible
25 Jun 7.9 00:28:33 25° W 00:30:29 29° NW 00:35:54 10° N visible
25 Jun 7.4 22:14:18 30° E 22:14:18 30° E 22:18:37 10° NE visible
25 Jun 7.4 23:54:44 36° W 23:56:11 40° WNW 00:02:06 10° NNE visible
26 Jun 7.8 21:40:23 21° E 21:40:23 21° E 21:43:55 10° ENE visible
26 Jun 6.9 23:20:49 49° W 23:21:58 56° WNW 23:28:11 10° NNE visible
27 Jun 9.0 01:05:10 10° NW 01:06:32 11° NW 01:07:52 10° NNW visible
27 Jun 8.1 21:06:20 15° E 21:06:20 15° E 21:08:43 10° ENE visible
27 Jun 6.4 22:46:45 63° SW 22:47:48 79° WNW 22:54:10 10° NNE visible
28 Jun 8.9 00:28:33 10° WNW 00:32:00 15° NW 00:35:25 10° NNW visible
28 Jun 6.3 22:12:30 58° S 22:13:42 74° ESE 22:20:02 10° NNE visible
